Watsonville, CA

12:15 PM PDT on October 14, 2019 (GMT -0700)
Watsonville Municipal

Weather History for KWVI - August, 2019

Change the Weather History Date:

Saturday, August 3, 2019

  Actual Average Record
Temperature  
Mean Temperature 64 °F 63 °F  
Max Temperature 75 °F 73 °F 79 °F (1999)
Min Temperature 52 °F 53 °F 48 °F (2008)
Degree Days  
Heating Degree Days 1    
Month to date heating degree days 2  
Since 1 June heating degree days 140  
Since 1 July heating degree days 49  
Cooling Degree Days 0    
Month to date cooling degree days 2  
Year to date cooling degree days 56  
Since 1 June cooling degree days 56  
Growing Degree Days 14 (Base 50)    
Moisture  
Dew Point 55 °F    
Average Humidity 77    
Maximum Humidity 100    
Minimum Humidity 54    
Precipitation  
Precipitation 0.00 in - 0.06 in (2002)
Month to date precipitation T  
Year to date precipitation 22.76  
Sea Level Pressure  
Sea Level Pressure 29.97 in    
Wind  
Wind Speed 5 mph (South)    
Max Wind Speed 12 mph    
Max Gust Speed 16 mph    
Visibility 6 miles    
Events Fog    
T = Trace of Precipitation, MM = Missing Value Source: NWS Daily Summary

Daily Weather History Graph

Daily Weather History Graph

Search for Another Location

Airport or City:

Astronomy

Aug. 03, 2019 Rise Set
Actual Time 6:14 AM PDT 8:12 PM PDT
Civil Twilight 5:45 AM PDT 8:40 PM PDT
Nautical Twilight 5:10 AM PDT 9:15 PM PDT
Astronomical Twilight 4:33 AM PDT 9:52 PM PDT
Moon 9:10 AM PDT (8/3) 10:25 PM PDT (8/3)
Length of Visible Light 14h 55m
Length of Day
13h 58m
Waxing Crescent, 10% of the Moon is Illuminated
Aug 3
Waxing Crescent
Aug 7
First Quarter
Aug 15
Full
Aug 23
Last Quarter
Aug 30
New

Hourly Weather History & Observations

Time (PDT) Temp. Dew Point Humidity Pressure Visibility Wind Dir Wind Speed Gust Speed Precip Events Conditions
12:53 AM 57.9 °F 54.0 °F 87% 30.00 in 10.0 mi Calm Calm - N/A   Clear
1:53 AM 55.0 °F 53.1 °F 93% 29.99 in 10.0 mi Calm Calm - N/A   Clear
2:53 AM 54.0 °F 52.0 °F 93% 29.98 in 10.0 mi Calm Calm - N/A   Clear
3:11 AM 52.0 °F 50.0 °F 93% 29.98 in 10.0 mi Calm Calm - N/A   Partly Cloudy
3:26 AM 53.1 °F 51.1 °F 93% 29.98 in 0.8 mi Calm Calm - N/A   Mist
3:34 AM 54.0 °F 52.0 °F 93% 29.98 in 0.2 mi Calm Calm - N/A Fog Fog
3:53 AM 54.0 °F 53.1 °F 97% 29.98 in 0.2 mi Calm Calm - N/A Fog Fog
4:14 AM 54.0 °F 52.0 °F 93% 29.98 in 0.5 mi Calm Calm - N/A Fog Fog
4:24 AM 53.1 °F 52.0 °F 96% 29.98 in 0.2 mi Calm Calm - N/A Fog Fog
4:35 AM 54.0 °F 52.0 °F 93% 29.97 in 0.5 mi Calm Calm - N/A Fog Fog
4:45 AM 55.0 °F 53.1 °F 93% 29.97 in 0.2 mi Calm Calm - N/A Fog Fog
4:53 AM 55.0 °F 53.1 °F 93% 29.97 in 0.2 mi Calm Calm - N/A Fog Fog
5:30 AM 55.0 °F 53.1 °F 93% 29.97 in 0.5 mi Calm Calm - N/A Fog Fog
5:50 AM 55.4 °F 53.6 °F 94% 29.97 in 0.2 mi Calm Calm - N/A Fog Fog
5:53 AM 55.0 °F 54.0 °F 96% 29.97 in 0.2 mi WNW 3.5 mph - N/A Fog Fog
6:53 AM 55.0 °F 54.0 °F 96% 29.98 in 0.2 mi Calm Calm - N/A Fog Fog
7:53 AM 55.9 °F 55.0 °F 97% 29.99 in 0.2 mi Calm Calm - N/A Fog Fog
8:53 AM 57.9 °F 57.0 °F 97% 29.99 in 0.5 mi Calm Calm - N/A Fog Fog
9:00 AM 57.9 °F 57.0 °F 97% 29.99 in 1.5 mi Calm Calm - N/A   Overcast
9:04 AM 57.9 °F 57.0 °F 97% 29.99 in 3.0 mi Calm Calm - N/A   Overcast
9:53 AM 62.1 °F 57.0 °F 84% 29.99 in 10.0 mi SSW 5.8 mph - N/A   Overcast
10:39 AM 66.9 °F 57.9 °F 73% 29.99 in 10.0 mi South 5.8 mph - N/A   Scattered Clouds
10:53 AM 68.0 °F 57.9 °F 70% 29.99 in 10.0 mi SSW 6.9 mph - N/A   Clear
11:53 AM 71.1 °F 57.9 °F 63% 29.97 in 10.0 mi South 6.9 mph - N/A   Clear
12:53 PM 73.9 °F 57.0 °F 55% 29.96 in 10.0 mi SW 9.2 mph - N/A   Clear
1:53 PM 75.0 °F 57.0 °F 53% 29.95 in 10.0 mi SSW 10.4 mph - N/A   Clear
2:53 PM 73.0 °F 57.0 °F 57% 29.95 in 10.0 mi South 8.1 mph - N/A   Clear
3:53 PM 71.1 °F 57.0 °F 61% 29.94 in 10.0 mi South 10.4 mph - N/A   Clear
4:53 PM 66.9 °F 57.0 °F 70% 29.94 in 10.0 mi South 11.5 mph - N/A   Clear
5:23 PM 64.9 °F 57.0 °F 75% 29.94 in 10.0 mi South 10.4 mph - N/A   Partly Cloudy
5:53 PM 64.9 °F 57.0 °F 75% 29.94 in 10.0 mi South 10.4 mph - N/A   Partly Cloudy
6:53 PM 63.0 °F 55.9 °F 78% 29.93 in 10.0 mi SSE 8.1 mph - N/A   Clear
7:40 PM 61.0 °F 55.9 °F 83% 29.94 in 10.0 mi SSE 6.9 mph - N/A   Partly Cloudy
7:53 PM 61.0 °F 55.9 °F 83% 29.94 in 10.0 mi SSE 5.8 mph - N/A   Partly Cloudy
8:53 PM 59.0 °F 55.9 °F 90% 29.95 in 10.0 mi SSE 5.8 mph - N/A   Clear
9:32 PM 59.0 °F 55.9 °F 90% 29.97 in 10.0 mi SSE 4.6 mph - N/A   Scattered Clouds
9:43 PM 59.0 °F 55.9 °F 90% 29.97 in 10.0 mi SE 4.6 mph - N/A   Mostly Cloudy
9:53 PM 59.0 °F 55.9 °F 90% 29.97 in 10.0 mi SSE 3.5 mph - N/A   Overcast
10:53 PM 60.1 °F 55.9 °F 86% 29.97 in 10.0 mi Calm Calm - N/A   Overcast
11:19 PM 59.0 °F 55.9 °F 90% 29.97 in 10.0 mi ESE 3.5 mph - N/A   Scattered Clouds
11:53 PM 59.0 °F 55.9 °F 90% 29.96 in 10.0 mi ENE 3.5 mph - N/A   Mostly Cloudy